New Philadelphia, OH

5:35 AM EDT on April 22, 2018 (GMT -0400)
Clever

Weather History for KPHD - August, 2012

Change the Weather History Date:

Thursday, August 23, 2012

  Actual Average Record
Temperature  
Mean Temperature 70 °F 71 °F  
Max Temperature 86 °F 82 °F 95 °F (1968)
Min Temperature 53 °F 59 °F 42 °F (1982)
Degree Days  
Heating Degree Days 0 0  
Month to date heating degree days 1 0  
Since 1 June heating degree days 19 38  
Since 1 July heating degree days 1 3  
Cooling Degree Days 5 6  
Month to date cooling degree days 142 158  
Year to date cooling degree days 846 578  
Since 1 June cooling degree days 699 535  
Growing Degree Days 18 (Base 50)    
Moisture  
Dew Point 56 °F    
Average Humidity 67    
Maximum Humidity 100    
Minimum Humidity 34    
Precipitation  
Precipitation 0.00 in 0.13 in 2.47 in (1987)
Month to date precipitation 1.74 2.54  
Year to date precipitation 18.15 25.90  
Sea Level Pressure  
Sea Level Pressure 30.15 in    
Wind  
Wind Speed 1 mph (SE)    
Max Wind Speed 7 mph    
Max Gust Speed 10 mph    
Visibility 6 miles    
Events Fog    
T = Trace of Precipitation, MM = Missing Value Source: NWS Daily Summary

Daily Weather History Graph

Daily Weather History Graph

Search for Another Location

Airport or City:

Astronomy

Aug. 23, 2012 Rise Set
Actual Time 6:44 AM EDT 8:10 PM EDT
Civil Twilight 6:16 AM EDT 8:39 PM EDT
Nautical Twilight 5:41 AM EDT 9:13 PM EDT
Astronomical Twilight 5:05 AM EDT 9:49 PM EDT
Moon 1:32 PM EDT (8/23) 11:36 PM EDT (8/23)
Length of Visible Light 14h 23m
Length of Day
13h 26m
Waxing Crescent, 40% of the Moon is Illuminated
Aug 23
Waxing Crescent
Aug 24
First Quarter
Aug 31
Full
Sep 8
Last Quarter
Sep 15
New

Hourly Weather History & Observations

Time (EDT) Temp. Heat Index Dew Point Humidity Pressure Visibility Wind Dir Wind Speed Gust Speed Precip Events Conditions
12:53 AM 57.9 °F - 55.9 °F 93% 30.14 in 10.0 mi Calm Calm - N/A   Clear
1:53 AM 57.0 °F - 55.0 °F 93% 30.14 in 7.0 mi Calm Calm - N/A   Clear
2:53 AM 55.9 °F - 54.0 °F 93% 30.15 in 8.0 mi Calm Calm - N/A   Clear
3:53 AM 55.9 °F - 54.0 °F 93% 30.16 in 6.0 mi Calm Calm - N/A   Clear
4:53 AM 55.0 °F - 54.0 °F 96% 30.16 in 4.0 mi Calm Calm - N/A   Clear
5:00 AM 55.4 °F - 53.6 °F 94% 30.17 in 1.5 mi Calm Calm - N/A   Clear
5:02 AM 55.4 °F - 53.6 °F 94% 30.16 in 0.8 mi Calm Calm - N/A   Clear
5:17 AM 55.4 °F - 53.6 °F 94% 30.17 in 1.2 mi Calm Calm - N/A   Clear
5:47 AM 53.6 °F - 53.6 °F 100% 30.17 in 0.8 mi Calm Calm - N/A   Clear
5:53 AM 54.0 °F - 53.1 °F 97% 30.16 in 0.5 mi Calm Calm - N/A Fog Fog
6:01 AM 53.6 °F - 53.6 °F 100% 30.17 in 1.2 mi Calm Calm - N/A   Clear
6:07 AM 53.6 °F - 53.6 °F 100% 30.17 in 0.8 mi Calm Calm - N/A   Clear
6:16 AM 53.6 °F - 51.8 °F 94% 30.17 in 1.2 mi Calm Calm - N/A   Clear
6:18 AM 53.6 °F - 51.8 °F 94% 30.17 in 3.0 mi Calm Calm - N/A   Clear
6:53 AM 53.1 °F - 52.0 °F 96% 30.18 in 5.0 mi Calm Calm - N/A   Clear
7:53 AM 57.0 °F - 55.0 °F 93% 30.18 in 5.0 mi Calm Calm - N/A   Clear
8:53 AM 63.0 °F - 57.9 °F 84% 30.19 in 9.0 mi Calm Calm - N/A   Clear
9:53 AM 69.1 °F - 59.0 °F 70% 30.18 in 10.0 mi SE 3.5 mph - N/A   Clear
10:53 AM 75.9 °F - 61.0 °F 60% 30.18 in 10.0 mi Calm Calm - N/A   Clear
11:53 AM 81.0 °F 81.3 °F 59.0 °F 47% 30.18 in 10.0 mi Calm Calm - N/A   Clear
12:53 PM 80.1 °F 80.7 °F 59.0 °F 48% 30.17 in 10.0 mi ESE 8.1 mph - N/A   Clear
1:53 PM 82.0 °F 81.6 °F 55.9 °F 41% 30.15 in 10.0 mi Calm Calm - N/A   Clear
2:53 PM 84.0 °F 82.9 °F 55.0 °F 37% 30.14 in 10.0 mi ESE 3.5 mph - N/A   Clear
3:53 PM 84.9 °F 84.2 °F 57.9 °F 40% 30.13 in 10.0 mi Variable 3.5 mph - N/A   Scattered Clouds
4:53 PM 84.9 °F 83.3 °F 54.0 °F 34% 30.12 in 10.0 mi Calm Calm - N/A   Clear
5:53 PM 84.9 °F 83.9 °F 57.0 °F 38% 30.11 in 10.0 mi Calm Calm - N/A   Clear
6:53 PM 80.1 °F 80.7 °F 59.0 °F 48% 30.11 in 10.0 mi South 3.5 mph - N/A   Clear
7:53 PM 75.9 °F - 59.0 °F 56% 30.11 in 10.0 mi SSE 3.5 mph - N/A   Clear
8:53 PM 69.1 °F - 60.1 °F 73% 30.12 in 10.0 mi Calm Calm - N/A   Clear
9:53 PM 64.9 °F - 60.1 °F 84% 30.13 in 9.0 mi Calm Calm - N/A   Clear
10:53 PM 64.0 °F - 59.0 °F 84% 30.14 in 8.0 mi Calm Calm - N/A   Clear
11:53 PM 61.0 °F - 57.9 °F 90% 30.14 in 7.0 mi Calm Calm - N/A   Clear